www.pogodaiklimat.ru

Погода и климат >> Архив погоды >> Индия >> Западная Бенгалия >> Колката аэропорт


АРХИВ ПОГОДЫ в Колката аэропорту

Время (UTC), дата Ветер
(напр.,м/с)
 
Видим.   Явления Облачность Т
(С)
Тd
(С)
f
(%)
Тe
(С)
Тes
(С)
Комфортность P
(гПа)
Po
(гПа)
Тmin
(С)
Tmax
(С)
R
(мм)
R24
(мм)
S
(см)
21 12.05 Ю 2 2000 м дымка 4/4 540 м
[Sc]
+29.6 +26.8 85 +46 +46 опасность
перегрева
1003.3 1002.6
00 13.05 ЮВ 2 2000 м дымка 5/4 540 м
[Sc Ac trans]
+29.0 +25.9 83 +43 +43 опасность
перегрева
1004.2 1003.5
03 13.05 Ю 2 2000 м мгла 9/4 540 м
[Sc Ac trans]
+31.6 +28.3 83 +53 +57 опасность
перегрева
1006.6 1005.9 +29.0
06 13.05 В 2 2000 м мгла 6/5 540 м
[Sc Ac trans]
+36.2 +27.5 61 +55 +66 опасность
перегрева
1005.6 1004.9
09 13.05 Ю 3 2000 м мгла 4/4 540 м
[Sc diur, vesp]
+36.8 +27.2 58 +55 +61 опасность
перегрева
1003.1 1002.4
12 13.05 Ю 2 2000 м мгла ясно +33.8 +24.4 58 +46 +47 опасность
перегрева
1001.9 1001.2 +37.4
15 13.05 Ю 2 2000 м мгла 8/8 540 м
[Sc]
+30.4 +26.2 78 +46 +46 опасность
перегрева
1004.7 1004.0
18 13.05 С 2 2000 м зарница {гроза} 9/5 540 м
[Sc Ac trans]
+24.2 +23.9 98 +33 +33 очень
душно
1005.6 1004.9 35
21 13.05 С 2 2000 м мгла 9/5 540 м
[Sc Ac trans]
+24.4 +22.9 91 +32 +32 очень
душно
1005.1 1004.4 35
00 14.05 штиль 0 2000 м мгла 6/1 600 м
[Sc Ac trans]
+24.8 +23.3 91 +33 +33 очень
душно
1005.0 1004.3 35
03 14.05 Ю 2 2000 м мгла ясно +30.8 +24.2 68 +43 +54 опасность
перегрева
1006.7 1006.0 +21.9 3
06 14.05 ЮВ 2 2000 м мгла 5/5 540 м
[Sc]
+34.2 +27.4 68 +53 +64 опасность
перегрева
1006.0 1005.3
09 14.05 Ю 2 2000 м гроза без осадков 8/5 540 м
[Cb cap Ac As]
+34.4 +26.4 63 +51 +55 опасность
перегрева
1003.3 1002.6
12 14.05 Ю 3 2000 м мгла {гроза} 9/4 540 м
[Sc Ac As]
+32.4 +26.6 72 +50 +50 опасность
перегрева
1002.7 1002.0 +36.4
15 14.05 В 2 2000 м зарница {гроза, дождь} 10/6 450 м
[Cb calv As op]
+24.4 +22.6 90 +32 +32 очень
душно
1005.7 1005.0 10
18 14.05 В 1 2000 м мгла {гроза} 8/4 540 м
[Sc Ac trans]
+24.2 +22.7 91 +32 +32 очень
душно
1006.4 1005.7 10
21 14.05 Ю 1 2000 м мгла 6/3 540 м
[Sc Ac trans]
+25.2 +21.9 82 +32 +32 очень
душно
1004.7 1004.0 10
00 15.05 Ю 1 2000 м мгла 6/3 540 м
[Sc Ac trans]
+25.4 +23.7 90 +35 +35 очень
душно
1005.4 1004.7 10
03 15.05 Ю 2 2000 м мгла 6/4 540 м
[Sc Ac trans]
+32.0 +26.4 72 +48 +54 опасность
перегрева
1007.4 1006.7 +23.7 10
06 15.05 Ю 2 2000 м мгла 6/5 540 м
[Sc diur, vesp Ac trans]
+34.6 +26.3 62 +51 +61 опасность
перегрева
1007.1 1006.4
09 15.05 Ю 2 2000 м мгла 8/6 600 м
[Sc diur, vesp Ac trans]
+36.4 +26.2 56 +52 +56 опасность
перегрева
1004.8 1004.1
12 15.05 Ю 2 2000 м мгла 4/3 600 м
[Sc Ac trans]
+33.4 +26.5 67 +50 +51 опасность
перегрева
1003.8 1003.1 +37.7
15 15.05 Ю 2 2000 м мгла 8/3 600 м
[Sc Ac trans]
+30.6 +26.7 80 +48 +48 опасность
перегрева
1005.3 1004.6
18 15.05 ЮВ 1 2000 м мгла 5/4 540 м
[Sc]
+29.4 +26.6 85 +45 +45 опасность
перегрева
1006.3 1005.6
21 15.05 ЮВ 2 2000 м мгла ясно +27.8 +24.6 83 +39 +39 очень
душно
1005.2 1004.5
00 16.05 ЮВ 1 2000 м мгла 3/3 540 м
[Sc]
+27.2 +24.6 86 +39 +39 очень
душно
1006.7 1006.0
03 16.05 Ю 2 2000 м мгла ясно +33.0 +24.8 62 +46 +59 опасность
перегрева
1008.2 1007.5 +26.6
06 16.05 Ю 2 2000 м мгла 1/1 600 м
[]
+35.2 +26.7 62 +53 +74 опасность
перегрева
1007.2 1006.5
09 16.05 Ю 1 2000 м мгла 5/3 540 м
[Sc diur, vesp Ac trans]
+38.0 +26.8 53 +55 +64 опасность
перегрева
1004.8 1004.1
12 16.05 Ю 1 2000 м мгла 3/3 600 м
[Sc diur, vesp]
+34.8 +25.9 60 +50 +51 опасность
перегрева
1004.3 1003.6 +38.6
15 16.05 Ю 2 2000 м мгла ясно +31.0 +26.3 76 +47 +47 опасность
перегрева
1005.7 1005.0
18 16.05 Ю 2 2000 м дымка 8/5 540 м
[Sc Ac trans]
+29.4 +27.2 88 +47 +47 опасность
перегрева
1005.9 1005.2
21 16.05 Ю 2 2000 м дымка 5/5 540 м
[Sc]
+29.2 +27.3 90 +47 +47 опасность
перегрева
1004.9 1004.2
00 17.05 ЮВ 2 2000 м дымка 4/4 540 м
[Sc]
+29.0 +27.3 91 +47 +47 опасность
перегрева
1005.1 1004.4
03 17.05 Ю 1 2000 м мгла 3/3 540 м
[Sc]
+32.6 +27.7 75 +52 +62 опасность
перегрева
1006.4 1005.7 +28.6
06 17.05 Ю 2 2000 м мгла 5/5 540 м
[Sc Ac trans]
+36.4 +28.3 63 +57 +69 опасность
перегрева
1005.8 1005.1
09 17.05 ЮВ 2 2000 м мгла 1/1 540 м
[Sc As trans Cs]
+37.4 +26.7 55 +55 +67 опасность
перегрева
1002.9 1002.2
12 17.05 Ю 2 2000 м мгла ясно +35.0 +27.6 66 +55 +55 опасность
перегрева
1001.9 1001.2 +38.3
15 17.05 Ю 3 2000 м мгла 3/3 540 м
[Sc]
+31.4 +28.1 83 +52 +52 опасность
перегрева
1004.1 1003.4
18 17.05 Ю 2 2000 м мгла 5/5 540 м
[Sc]
+30.4 +27.7 86 +50 +50 опасность
перегрева
1004.3 1003.6
21 17.05 Ю 2 2000 м мгла 9/6 <50 м
[Sc Ac trans]
+30.0 +27.2 85 +48 +48 опасность
перегрева
1002.9 1002.2
00 18.05 Ю 2 2000 м мгла 4/4 540 м
[Sc]
+29.8 +27.0 85 +47 +47 опасность
перегрева
1004.0 1003.3
03 18.05 Ю 1 2000 м мгла 6/6 540 м
[Sc Ac trans]
+33.2 +28.0 74 +54 +59 опасность
перегрева
1005.9 1005.2 +29.6
06 18.05 Ю 2 2000 м мгла 1/1 540 м
[Sc]
+36.6 +27.3 59 +55 +77 опасность
перегрева
1005.2 1004.5
09 18.05 Ю 2 2000 м мгла 1/1 540 м
[Sc]
+37.6 +28.7 61 +60 +73 опасность
перегрева
1002.8 1002.1
12 18.05 Ю 3 2000 м мгла 3/3 540 м
[Sc]
+35.0 +28.4 69 +57 +57 опасность
перегрева
1002.6 1001.9 +38.2
15 18.05 Ю 2 2000 м мгла 6/3 540 м
[Sc Ac trans]
+31.4 +28.1 83 +52 +52 опасность
перегрева
1004.6 1003.9
18 18.05 Ю 2 2000 м мгла 6/4 540 м
[Sc Ac trans]
+30.6 +27.9 86 +51 +51 опасность
перегрева
1004.6 1003.9
21 18.05 ЮЗ 2 2000 м мгла 9/4 540 м
[Sc Ac trans]
+30.4 +27.7 86 +50 +50 опасность
перегрева
1004.0 1003.3
00 19.05 Ю 1 2000 м мгла 9/4 450 м
[Sc Ac trans]
+30.0 +27.5 86 +48 +48 опасность
перегрева
1004.9 1004.2
03 19.05 Ю 2 2000 м мгла 6/5 540 м
[Sc diur, vesp Ac trans]
+33.6 +27.9 72 +54 +59 опасность
перегрева
1006.8 1006.1 +29.8
06 19.05 штиль 0 2000 м мгла 9/8 540 м
[Sc diur, vesp Ac trans]
+35.8 +27.0 61 +54 +58 опасность
перегрева
1006.6 1005.9
09 19.05 ЮВ 2 2000 м мгла 8/6 600 м
[Sc diur, vesp Ac trans]
+36.4 +26.2 56 +52 +56 опасность
перегрева
1004.9 1004.2
12 19.05 Ю 2 2000 м слаб. дождь 8/4 450 м
[Cb cap Ac trans]
+29.6 +25.4 78 +43 +43 опасность
перегрева
1004.9 1004.2 +37.5 1
15 19.05 ЮВ 1 2000 м мгла 1/1 540 м
[Sc]
+29.6 +26.2 82 +45 +45 опасность
перегрева
1007.5 1006.8 1
18 19.05 Ю 3 2000 м мгла 4/4
[Sc]
+30.0 +27.4 86 +48 +48 опасность
перегрева
1007.8 1007.1 1

 

Местоположение метеостанции Колката аэропорт (Западная Бенгалия, Индия): широта 22.65 долгота 88.45 высота над уровнем моря 6 м.

В архиве по умолчанию представлена погода в Колката аэропорту за последнюю неделю. Архивные данные за месяц целиком и за предыдущие месяцы, начиная с января 2011 года, Вы можете получить, выбрав интересующий диапазон дат из раскрывающегося списка и нажав кнопку "Ввод!".


*Определитесь, кто Вы:
робот инопланетянин человек

Внимание! Время в таблицах - всемирное. Для получения местного времени необходимо прибавить поправку, которая равна 5.5 ч.

Смотрите также архив погоды в соседних городах и на ближайших метеорологических станциях:

Погода в Колкате (Западная Бенгалия, Индия) (18 км)
Погода в Багати (Западная Бенгалия, Индия) (38 км)
Погода в Бейсирхэте (Западная Бенгалия, Индия) (43 км)
Погода в Каннинге (Западная Бенгалия, Индия) (50 км)
Погода в Улуберии (Западная Бенгалия, Индия) (54 км)
Погода в Даймонд Харбор (Западная Бенгалия, Индия) (58 км)
Погода в Саткхире (Бангладеш) (65 км)
Погода в Халдии (Западная Бенгалия, Индия) (80 км)
Погода в Кришнанагаре (Западная Бенгалия, Индия) (84 км)
Погода в Бардхамане (Западная Бенгалия, Индия) (89 км)

Пояснения к столбцам:

Ветер - указаны скорость ветра в м/с - средняя за 10 мин, порывы в срок и между сроками (в фигурных скобках) и направление, откуда дует ветер: С - северный, СВ - северо-восточный, В - восточный, ЮВ - юго-восточный, Ю - южный, ЮЗ - юго-западный, З - западный, СЗ - северо-западный.
Видимость - горизонтальная дальность видимости в метрах или километрах. При видимости от 1 до 10 км при отсутствии осадков обычно наблюдается дымка, при ухудшении видимости до 1 км и менее - туман. В сухую погоду видимость может ухудшаться дымом, пылью или мглою.
Явления - указаны атмосферные явления, наблюдавшиеся в срок или в последний час перед сроком; фигурными скобками обозначены явления, наблюдавшиеся между сроками (за 1-3 часа до срока); квадратными скобками обозначены град или гололедные отложения с указанием их диаметра в мм.
Облачность - указаны через наклонную черту общая и нижняя облачность в баллах и высота нижней границы облаков в метрах; квадратными скобками обозначены формы облаков: Ci - перистые, Cs - перисто-слоистые, Cc - перисто-кучевые, Ac - высококучевые, As - высокослоистые, Sc - слоисто-кучевые, Ns - слоисто-дождевые, Cu - кучевые, Cb - кучево-дождевые. Подробнее классификацию облаков см. в Атласе облаков (PDF).
T - Температура воздуха - температура, измеренная на высоте 2 м над землей.
Td - Температура точки росы - температура, при понижении до которой содержащийся в воздухе водяной пар достигнет насыщения.
f - Относительная влажность воздуха - влажноcть воздуха, измеренная на высоте 2 м над землей.
Te - Эффективная температура - температура, которую ощущает одетый по сезону человек в тени. Характеристика душности погоды. При расчете учитывается влияние влажности воздуха и скорости ветра на теплоощущения человека.
Tes - Эффективная температура на солнце - температура, которую ощущает человек, с поправкой на солнечный нагрев. Характеристика знойности погоды. Зависит от высоты солнца над горизонтом, облачности и скорости ветра. Ночью, в пасмурную погоду, а также при ветре 12 м/с и более поправка равна нулю.
P - Атмосферное давление - приведенное к уровню моря атмосферное давление.
Po - Атмосферное давление - измеренное на уровне метеостанции атмосферное давление.
Tmin - Минимальная температура - минимум температуры воздуха на высоте 2 м над землей.
Tmax - Максимальная температура - максимум температуры воздуха на высоте 2 м над землей.
R - Количество осадков - Количество выпавших осадков за период времени, мм. При наведении курсора мыши на число - период времени, за который выпало указанное количество осадков.
R24 - Количество осадков - Количество выпавших осадков за 24 часа, мм.
S - Снежный покров - Высота снежного покрова, см. При наведении курсора мыши на число - состояние снежного покрова и степень покрытия местности в баллах.